Nampa, ID

2:11 AM MST on February 22, 2017 (GMT -0700)
Nampa

Weather History for KMAN - May, 2014

Change the Weather History Date:

Wednesday, May 7, 2014

  Actual Average (KBOI) Record (KBOI)
Temperature  
Mean Temperature 55 °F -  
Max Temperature 66 °F 69 °F 93 °F (1987)
Min Temperature 44 °F 42 °F 26 °F (1981)
Degree Days  
Heating Degree Days 10    
Growing Degree Days 5 (Base 50)    
Moisture  
Dew Point 31 °F    
Average Humidity 44    
Maximum Humidity 71    
Minimum Humidity 21    
Precipitation  
Precipitation 0.00 in - - ()
Sea Level Pressure  
Sea Level Pressure 29.80 in    
Wind  
Wind Speed 14 mph (NW)    
Max Wind Speed 23 mph    
Max Gust Speed 36 mph    
Visibility 10 miles    
Events      
Averages and records for this station are not official NWS values.
T = Trace of Precipitation, MM = Missing Value Source: NWS Daily Summary

Daily Weather History Graph

Daily Weather History Graph

Search for Another Location

Airport or City:

Trip Planner

Search our weather history database for the weather conditions in past years. The results will help you decide how hot, cold, wet, or windy it might be!

Date:

Astronomy

May. 07, 2014 Rise Set
Actual Time 6:30 AM MDT 8:55 PM MDT
Civil Twilight 5:58 AM MDT 9:27 PM MDT
Nautical Twilight 5:18 AM MDT 10:07 PM MDT
Astronomical Twilight 4:33 AM MDT 10:52 PM MDT
Moon 1:52 PM MDT (5/7) 2:45 AM MDT (5/7)
Length of Visible Light 15h 29m
Length of Day
14h 25m
First Quarter, 56% of the Moon is Illuminated
May 7
First Quarter
May 14
Full
May 21
Last Quarter
May 28
New
Jun 5
First Quarter

Hourly Weather History & Observations

Time (MDT) Temp. Windchill Dew Point Humidity Pressure Visibility Wind Dir Wind Speed Gust Speed Precip Events Conditions
12:15 AM 48.2 °F - 32.0 °F 54% 29.78 in 10.0 mi NW 11.5 mph 17.3 mph N/A   Clear
12:35 AM 48.2 °F - 33.8 °F 58% 29.78 in 10.0 mi NW 13.8 mph 19.6 mph N/A   Clear
12:55 AM 48.2 °F - 33.8 °F 58% 29.78 in 10.0 mi NW 13.8 mph 18.4 mph N/A   Clear
1:15 AM 48.2 °F - 33.8 °F 58% 29.78 in 10.0 mi NW 12.7 mph - N/A   Clear
1:35 AM 48.2 °F - 33.8 °F 58% 29.78 in 10.0 mi WNW 15.0 mph 19.6 mph N/A   Clear
1:55 AM 48.2 °F - 33.8 °F 58% 29.78 in 10.0 mi NW 12.7 mph 18.4 mph N/A   Clear
2:15 AM 46.4 °F 40.7 °F 33.8 °F 62% 29.78 in 10.0 mi WNW 12.7 mph 19.6 mph N/A   Clear
2:35 AM 46.4 °F 41.1 °F 35.6 °F 66% 29.78 in 10.0 mi WNW 11.5 mph - N/A   Clear
2:55 AM 46.4 °F 40.7 °F 35.6 °F 66% 29.78 in 10.0 mi NW 12.7 mph - N/A   Clear
3:15 AM 46.4 °F 40.7 °F 35.6 °F 66% 29.78 in 10.0 mi WNW 12.7 mph 18.4 mph N/A   Clear
3:35 AM 48.2 °F - 33.8 °F 58% 29.78 in 10.0 mi NW 15.0 mph 20.7 mph N/A   Clear
3:55 AM 46.4 °F 40.1 °F 33.8 °F 62% 29.78 in 10.0 mi WNW 15.0 mph 21.9 mph N/A   Clear
4:15 AM 46.4 °F 39.5 °F 33.8 °F 62% 29.78 in 10.0 mi NW 17.3 mph 24.2 mph N/A   Clear
4:35 AM 46.4 °F 40.7 °F 33.8 °F 62% 29.78 in 10.0 mi NW 12.7 mph 23.0 mph N/A   Clear
4:55 AM 46.4 °F 40.4 °F 32.0 °F 57% 29.78 in 10.0 mi NW 13.8 mph 19.6 mph N/A   Clear
5:15 AM 46.4 °F 39.5 °F 32.0 °F 57% 29.79 in 10.0 mi NW 17.3 mph 20.7 mph N/A   Clear
5:35 AM 46.4 °F 39.5 °F 33.8 °F 62% 29.78 in 10.0 mi NW 17.3 mph 26.5 mph N/A   Clear
5:55 AM 46.4 °F 40.1 °F 33.8 °F 62% 29.79 in 10.0 mi NW 15.0 mph 26.5 mph N/A   Clear
6:15 AM 46.4 °F 39.0 °F 33.8 °F 62% 29.79 in 10.0 mi NW 19.6 mph 23.0 mph N/A   Clear
6:35 AM 44.6 °F 37.8 °F 35.6 °F 71% 29.80 in 10.0 mi NW 15.0 mph 24.2 mph N/A   Clear
6:55 AM 44.6 °F 38.1 °F 35.6 °F 71% 29.80 in 10.0 mi NW 13.8 mph 19.6 mph N/A   Clear
7:15 AM 44.6 °F 38.1 °F 35.6 °F 71% 29.80 in 10.0 mi NW 13.8 mph - N/A   Clear
7:35 AM 46.4 °F 40.1 °F 35.6 °F 66% 29.80 in 10.0 mi NW 15.0 mph 23.0 mph N/A   Clear
7:55 AM 46.4 °F 40.1 °F 35.6 °F 66% 29.80 in 10.0 mi NW 15.0 mph 23.0 mph N/A   Clear
8:15 AM 46.4 °F 40.1 °F 35.6 °F 66% 29.81 in 10.0 mi NW 15.0 mph 21.9 mph N/A   Clear
8:35 AM 48.2 °F - 35.6 °F 62% 29.81 in 10.0 mi NW 13.8 mph 24.2 mph N/A   Clear
8:55 AM 48.2 °F - 35.6 °F 62% 29.81 in 10.0 mi NW 12.7 mph 23.0 mph N/A   Clear
9:15 AM 50.0 °F - 35.6 °F 58% 29.82 in 10.0 mi NW 16.1 mph 24.2 mph N/A   Clear
9:35 AM 51.8 °F - 35.6 °F 54% 29.82 in 10.0 mi NW 13.8 mph 23.0 mph N/A   Clear
9:55 AM 53.6 °F - 33.8 °F 47% 29.81 in 10.0 mi NW 18.4 mph 25.3 mph N/A   Clear
10:15 AM 55.4 °F - 33.8 °F 44% 29.81 in 10.0 mi NNW 15.0 mph 26.5 mph N/A   Clear
10:35 AM 55.4 °F - 33.8 °F 44% 29.80 in 10.0 mi NW 17.3 mph 23.0 mph N/A   Clear
11:15 AM 57.2 °F - 32.0 °F 38% 29.81 in 10.0 mi NW 18.4 mph 27.6 mph N/A   Clear
11:35 AM 59.0 °F - 32.0 °F 36% 29.81 in 10.0 mi NW 20.7 mph 27.6 mph N/A   Partly Cloudy
12:15 PM 60.8 °F - 28.4 °F 29% 29.80 in 10.0 mi NW 16.1 mph 24.2 mph N/A   Scattered Clouds
12:35 PM 62.6 °F - 28.4 °F 27% 29.80 in 10.0 mi North 16.1 mph 23.0 mph N/A   Scattered Clouds
12:55 PM 62.6 °F - 28.4 °F 27% 29.80 in 10.0 mi NNW 18.4 mph 26.5 mph N/A   Partly Cloudy
1:15 PM 62.6 °F - 28.4 °F 27% 29.80 in 10.0 mi NNW 17.3 mph 26.5 mph N/A   Partly Cloudy
1:35 PM 64.4 °F - 28.4 °F 26% 29.79 in 10.0 mi NNW 18.4 mph 27.6 mph N/A   Partly Cloudy
1:55 PM 64.4 °F - 28.4 °F 26% 29.79 in 10.0 mi NNW 23.0 mph 33.4 mph N/A   Clear
2:15 PM 62.6 °F - 28.4 °F 27% 29.79 in 10.0 mi NNW 17.3 mph 25.3 mph N/A   Partly Cloudy
2:35 PM 64.4 °F - 26.6 °F 24% 29.79 in 10.0 mi NNW 20.7 mph 29.9 mph N/A   Partly Cloudy
2:55 PM 62.6 °F - 28.4 °F 27% 29.78 in 10.0 mi NNW 18.4 mph 35.7 mph N/A   Partly Cloudy
3:15 PM 66.2 °F - 26.6 °F 23% 29.78 in 10.0 mi NNW 18.4 mph 25.3 mph N/A   Partly Cloudy
3:35 PM 64.4 °F - 26.6 °F 24% 29.78 in 10.0 mi NW 16.1 mph 27.6 mph N/A   Partly Cloudy
3:55 PM 64.4 °F - 24.8 °F 22% 29.78 in 10.0 mi North 20.7 mph 26.5 mph N/A   Partly Cloudy
4:15 PM 66.2 °F - 24.8 °F 21% 29.79 in 10.0 mi NNW 16.1 mph 28.8 mph N/A   Partly Cloudy
4:35 PM 64.4 °F - 24.8 °F 22% 29.78 in 10.0 mi NNW 17.3 mph 26.5 mph N/A   Partly Cloudy
4:55 PM 64.4 °F - 24.8 °F 22% 29.79 in 10.0 mi NNW 16.1 mph - N/A   Partly Cloudy
5:15 PM 64.4 °F - 24.8 °F 22% 29.79 in 10.0 mi NNW 16.1 mph 24.2 mph N/A   Partly Cloudy
5:35 PM 66.2 °F - 26.6 °F 23% 29.79 in 10.0 mi NNW 16.1 mph 23.0 mph N/A   Clear
5:55 PM 64.4 °F - 26.6 °F 24% 29.80 in 10.0 mi NNW 13.8 mph 26.5 mph N/A   Clear
6:15 PM 64.4 °F - 26.6 °F 24% 29.80 in 10.0 mi North 12.7 mph 23.0 mph N/A   Partly Cloudy
6:35 PM 64.4 °F - 26.6 °F 24% 29.80 in 10.0 mi NNW 13.8 mph 23.0 mph N/A   Partly Cloudy
6:55 PM 64.4 °F - 26.6 °F 24% 29.80 in 10.0 mi NW 15.0 mph 23.0 mph N/A   Clear
7:15 PM 62.6 °F - 28.4 °F 27% 29.80 in 10.0 mi NNW 15.0 mph 20.7 mph N/A   Clear
7:35 PM 62.6 °F - 28.4 °F 27% 29.81 in 10.0 mi NNW 13.8 mph 21.9 mph N/A   Clear
7:55 PM 62.6 °F - 28.4 °F 27% 29.81 in 10.0 mi NNW 12.7 mph 17.3 mph N/A   Clear
8:15 PM 60.8 °F - 30.2 °F 31% 29.81 in 10.0 mi NNW 10.4 mph 16.1 mph N/A   Clear
8:35 PM 59.0 °F - 32.0 °F 36% 29.81 in 10.0 mi NNW 9.2 mph - N/A   Clear
8:55 PM 59.0 °F - 28.4 °F 31% 29.82 in 10.0 mi NNW 9.2 mph - N/A   Clear
9:15 PM 57.2 °F - 30.2 °F 36% 29.83 in 10.0 mi NNW 9.2 mph - N/A   Clear
9:35 PM 55.4 °F - 32.0 °F 41% 29.83 in 10.0 mi NNW 6.9 mph - N/A   Clear
9:55 PM 55.4 °F - 30.2 °F 38% 29.84 in 10.0 mi North 9.2 mph - N/A   Clear
10:15 PM 55.4 °F - 28.4 °F 36% 29.85 in 10.0 mi North 8.1 mph - N/A   Clear
10:35 PM 53.6 °F - 28.4 °F 38% 29.86 in 10.0 mi North 5.8 mph - N/A   Clear
10:55 PM 53.6 °F - 28.4 °F 38% 29.86 in 10.0 mi North 5.8 mph - N/A   Clear
11:15 PM 51.8 °F - 28.4 °F 41% 29.86 in 10.0 mi North 5.8 mph - N/A   Clear
11:35 PM 50.0 °F - 28.4 °F 43% 29.87 in 10.0 mi NNW 4.6 mph - N/A   Clear
11:55 PM 46.4 °F - 32.0 °F 57% 29.87 in 10.0 mi Calm Calm - N/A   Clear